Flag for Canada Weather past 2 weeks in Saguenay, Quebec, Canada

Now
44 °F

Quite cool.


Feels Like: 37 °F
Forecast: 35 / 48 °F
Wind: 14 mph from Northwest

Location: Jonquiere Airport

Current Time: Sep 18, 2014 at 2:40:15 PM

Latest Report: Sep 18, 2014 at 2:00 PM


Visibility: N/A

Pressure: 30.09 "Hg

Humidity: 48%

Dew point: 25 °F

Location of SaguenayLocation

Historic Weather in Saguenay — Graph

°F

Saguenay temperature yesterday

Maximum temperature yesterday: 51 °F (at 12:00 AM)
Minimum temperature yesterday: 40 °F (at 7:00 AM)
Average temperature yesterday: 45 °F

Past Weeks' High & Low Weather Summary

 TemperatureHumidityPressure
High78 °F (Sep 5, 3:00 PM)100% (Sep 13, 4:00 AM)30.42 "Hg (Sep 13, 4:00 AM)
Low33 °F (Sep 13, 4:00 AM)35% (Sep 7, 3:00 PM)29.38 "Hg (Sep 11, 3:00 PM)
Average54 °F76%30.03 "Hg
* Reported Sep 3 1:00 PM — Sep 18 1:00 PM, Saguenay, Weather by CustomWeather, © 2014

Note: Actual official high and low records may vary slightly from our data, if they occured in-between our weather recording intervals... More about our weather records

Advertising

Saguenay weather history for previous 24 hours

 ConditionsComfort  
Time TempWeatherWind HumidityBarometerVisibility
1:00 PM
Sep 18
46 °FCool.13 mph47%30.08 "HgN/A
12:00 PM45 °FQuite cool.12 mph56%30.08 "HgN/A
11:00 AM42 °FQuite cool.13 mph59%30.08 "HgN/A
10:00 AM42 °FQuite cool.13 mph62%30.07 "HgN/A
9:00 AM41 °FQuite cool.10 mph74%30.05 "HgN/A
8:00 AM40 °FChilly.13 mph81%30.03 "HgN/A
7:00 AM38 °FChilly.8 mph85%30.01 "HgN/A
6:00 AM40 °FChilly.8 mph82%29.98 "HgN/A
5:00 AM41 °FQuite cool.5 mph78%29.97 "HgN/A
4:00 AM42 °FQuite cool.9 mph76%29.96 "HgN/A
3:00 AM42 °FQuite cool.7 mph85%29.95 "HgN/A
2:00 AM42 °FQuite cool.1 mph86%29.96 "HgN/A
1:00 AM41 °FQuite cool.No wind89%29.96 "HgN/A
12:00 AM41 °FQuite cool.3 mph86%29.96 "HgN/A
11:00 PM
Sep 17
42 °FQuite cool.7 mph83%29.96 "HgN/A
10:00 PM43 °FQuite cool.8 mph78%29.97 "HgN/A
9:00 PM43 °FQuite cool.7 mph72%29.98 "HgN/A
8:00 PM44 °FQuite cool.5 mph71%29.99 "HgN/A
7:00 PM44 °FQuite cool.2 mph80%29.98 "HgN/A
6:00 PM46 °FCool.5 mph67%29.98 "HgN/A
5:00 PM47 °FCool.7 mph60%29.98 "HgN/A
4:00 PM49 °FCool.5 mph55%29.98 "HgN/A
3:00 PM49 °FCool.3 mph49%29.99 "HgN/A
2:00 PM48 °FCool.3 mph44%30.01 "HgN/A
Weather by CustomWeather, © 2014

See weather overviewHow to use our weather pages